This is the latest recevied weather packets stored in our database for station/object K8WEH. If no packets are shown the sender has not sent any weather packets the latest 10 day(s).
| Time | Temp. | Humidity | Pressure | Rain* | Wind** | Luminosity | Snow |
|---|---|---|---|---|---|---|---|
| 1777400702 | 21.11° C | 73% | 1015.1 hPa | 0 mm | - | - | - |
| 1777400402 | 21.11° C | 73% | 1015 hPa | 0 mm | - | - | - |
| 1777400102 | 21.67° C | 73% | 1015 hPa | 0 mm | - | - | - |
| 1777399801 | 21.67° C | 73% | 1015.1 hPa | 0 mm | - | - | - |
| 1777399561 | 21.67° C | 73% | 1015.2 hPa | 0 mm | - | - | - |
| 1777399261 | 21.67° C | 72% | 1015.3 hPa | 0 mm | - | - | - |
| 1777398957 | 21.67° C | 73% | 1015.4 hPa | 0 mm | - | - | - |
| 1777398656 | 21.11° C | 72% | 1015.3 hPa | 0 mm | - | - | - |
| 1777398356 | 21.11° C | 72% | 1015.4 hPa | 0 mm | - | - | - |
| 1777398054 | 21.11° C | 70% | 1015.5 hPa | 0 mm | - | - | - |
| 1777397753 | 21.11° C | 66% | 1015.6 hPa | 0 mm | - | - | - |
| 1777397466 | 20.56° C | 60% | 1015.5 hPa | 0 mm | - | - | - |
| 1777397152 | 20° C | 54% | 1015.5 hPa | 0 mm | - | - | - |
| 1777396852 | 19.44° C | 64% | 1015.6 hPa | 0 mm | - | - | - |
| 1777396552 | 19.44° C | 64% | 1015.6 hPa | 0 mm | - | - | - |
| 1777396252 | 19.44° C | 66% | 1015.7 hPa | 0 mm | - | - | - |
| 1777395951 | 19.44° C | 67% | 1015.8 hPa | 0 mm | - | - | - |
| 1777395654 | 20° C | 67% | 1015.7 hPa | 0 mm | - | - | - |
| 1777395351 | 20° C | 64% | 1015.7 hPa | 0 mm | - | - | - |
| 1777395049 | 20° C | 65% | 1015.7 hPa | 0 mm | - | - | - |
| 1777394753 | 20° C | 63% | 1015.7 hPa | 0 mm | - | - | - |
| 1777394448 | 19.44° C | 64% | 1015.8 hPa | 0 mm | - | - | - |
| 1777394147 | 19.44° C | 62% | 1015.7 hPa | 0 mm | - | - | - |
| 1777393846 | 19.44° C | 56% | 1015.9 hPa | 0 mm | - | - | - |
| 1777393545 | 18.89° C | 57% | 1016 hPa | 0 mm | - | - | - |
* Rain latest hour (hover to see other rain measurements)
** Current wind speed in m/s (hover to see current wind gust speed)